Probability
0 0 0 0 0 0 0 0 0 1 2 2 1 0 0 0 0 1 1 1 0 0 0 0 0 0 0 0 0 0 0 0 0 0 0 0 0 0 0 0 0 0 0
0 0 0 0 0 0 0 0 0 0 1 1 0 0 0 0 0 0 0 0 0 0 0 0 0 0 0 0 0 0 0 0 0 0 0 0 0 0 0 0 0 0 0
0 0 0 0 0 0 0 0 0 0 0 0 0 0 0 0 0 0 0 0 0 0 0 0 0 0 0 0 0 0 0 0 0 0 0 0 0 0 0 0 0 0 0
0 0 0 0 0 0 0 0 0 0 0 0 0 0 0 0 0 0 0 0 0 0 0 0 0 0 0 0 0 0 0 0 0 0 0 0 0 0 0 0 0 0 0
0 0 0 0 0 0 0 0 0 0 0 0 0 0 0 0 0 0 0 0 0 0 0 0 0 0 0 0 0 0 0 0 0 0 0 0 0 0 0 0 0 0 0
0 0 0 0 0 0 0 0 0 1 0 0 0 0 0 0 0 0 0 0 0 0 0 0 0 0 0 0 0 0 0 0 0 0 0 0 0 0 0 0 0 0 0
0 0 0 0 0 0 0 0 0 0 0 0 0 0 0 0 0 0 0 0 0 0 0 0 0 0 0 0 0 0 0 0 0 0 0 0 0 0 0 0 0 0 0
0 0 0 0 0 0 0 0 0 0 0 0 0 0 0 0 0 0 0 0 0 0 0 0 0 0 0 0 0 0 0 0 0 0 0 0 0 0 0 0 0 0 0
0 0 0 0 0 0 0 0 0 0 0 0 0 0 0 0 0 0 0 0 0 0 0 0 0 0 0 0 0 0 0 0 0 0 0 0 0 0 0 0 0 0 0
0 0 0 0 0 0 0 0 0 0 0 0 0 0 0 0 0 0 0 0 0 0 0 0 0 0 0 0 0 0 0 0 0 0 0 0 0 0 0 0 0 0 0
0 0 0 0 0 0 0 0 0 0 0 0 0 0 0 0 0 0 0 0 0 0 0 0 0 0 0 0 0 0 0 0 0 0 0 0 0 0 0 0 0 0 0
0 0 0 0 0 0 0 0 0 0 0 0 0 0 0 0 0 0 0 0 0 0 0 0 0 0 0 0 0 0 0 0 0 0 0 0 0 0 0 0 0 0 0
0 0 0 0 0 0 0 0 0 0 0 0 0 0 0 0 0 0 0 0 0 0 0 0 0 0 0 0 0 0 0 0 0 0 0 0 0 0 0 0 0 0 0
0 0 0 0 0 0 0 0 0 0 0 0 0 0 0 0 0 0 0 0 0 0 0 0 0 0 0 0 0 0 0 0 0 0 0 0 0 0 0 0 0 0 0
0 0 0 0 0 0 0 0 0 0 0 0 0 0 0 0 0 0 0 0 0 0 0 0 0 0 0 0 0 0 0 0 0 0 0 0 0 0 0 0 0 0 0
0 0 0 0 0 0 0 0 0 0 0 0 0 0 0 0 0 0 0 0 0 0 0 0 0 0 0 0 0 0 0 0 0 0 0 0 0 0 0 0 0 0 0
0 0 0 0 0 0 0 0 0 0 0 0 0 0 0 0 0 0 0 0 0 0 0 0 0 0 0 0 0 0 0 0 0 0 0 0 0 0 0 0 0 0 0
0 0 0 0 0 0 0 0 0 0 0 0 0 0 0 0 0 0 0 0 0 0 0 0 0 0 0 0 0 0 0 0 0 0 0 0 0 0 0 0 0 0 0
0 0 0 0 0 0 0 0 0 0 0 0 0 0 0 0 0 0 0 0 0 0 0 0 0 0 0 0 0 0 0 0 0 0 0 0 0 0 0 0 0 0 0
0 0 0 0 0 0 0 0 0 0 0 0 0 0 0 0 0 0 0 0 0 0 0 0 0 0 0 0 0 0 0 0 0 0 0 0 0 0 0 0 0 0 0
0 0 0 0 0 0 0 0 0 0 0 0 0 0 0 0 0 0 0 0 0 0 0 0 0 0 0 0 0 0 0 0 0 0 0 0 0 0 0 0 0 0 0
0 0 0 0 0 0 0 0 0 0 0 0 0 0 0 0 0 0 0 0 0 0 0 0 0 0 0 0 0 0 0 0 0 0 0 0 0 0 0 0 0 0 0
0 0 0 0 0 0 0 0 0 0 0 0 0 0 0 0 0 0 0 0 0 0 0 0 0 0 0 0 0 0 0 0 0 0 0 0 0 0 0 0 0 0 0
0 0 0 0 0 0 0 0 0 0 0 0 0 0 0 0 0 0 0 0 0 0 0 0 0 0 0 0 0 0 0 0 0 0 0 0 0 0 0 0 0 0 0
0 0 0 0 0 0 0 0 0 0 0 0 0 0 0 0 0 0 0 0 0 0 0 0 0 0 0 0 0 0 0 0 0 0 0 0 0 0 0 0 0 0 0
0 0 0 0 0 0 0 0 0 0 0 0 0 0 0 0 0 0 0 0 0 0 0 0 0 0 0 0 0 0 0 0 0 0 0 0 0 0 0 0 0 0 0
Wind_Speed
3 2 3 4 3 3 2 1 2 1 2 1 1 1 1 1 1 1 2 3 3 3 3 3 3 3 2 3 3 2 2 2 2 2 3 3 2 2 1 1 1 1 2
2 2 3 3 3 3 3 2 2 1 1 1 0 0 0 1 1 1 2 2 2 3 3 2 2 3 2 3 3 3 2 2 2 1 2 3 3 2 1 1 1 2 2
5 4 4 3 3 3 2 2 2 1 1 1 1 2 2 2 2 2 2 2 2 2 2 2 2 2 2 2 3 2 2 2 2 1 1 1 3 3 2 1 1 2 2
4 4 4 4 4 3 2 2 2 2 1 1 2 1 1 0 1 1 1 2 2 2 2 2 2 2 2 2 2 2 2 2 2 2 1 2 2 3 4 2 2 2 3
5 5 4 5 4 3 3 2 2 2 1 1 1 1 0 1 1 1 1 2 2 2 2 2 2 2 1 2 2 2 2 2 2 2 2 2 2 3 3 5 3 3 3
3 3 3 3 2 2 2 2 2 2 2 2 2 2 2 2 1 1 1 2 2 2 2 2 2 2 2 2 2 2 2 2 2 2 2 2 2 2 3 5 5 5 3
3 3 3 3 3 3 3 3 3 3 2 2 2 2 3 2 2 2 1 1 1 2 3 2 2 2 2 2 2 2 2 2 2 2 2 2 3 2 3 4 5 5 4
3 3 4 4 4 4 4 3 4 3 3 3 3 2 2 2 2 2 1 2 2 2 2 2 2 2 2 3 2 2 2 2 2 3 2 2 2 2 2 3 4 5 5
3 4 3 3 4 4 4 4 4 4 4 4 3 3 3 3 2 2 1 1 2 2 2 2 2 2 2 2 2 2 2 2 2 2 2 2 2 2 2 2 3 4 6
3 3 3 3 3 4 3 3 4 5 4 4 4 3 3 3 3 2 2 2 2 2 2 2 2 2 2 2 2 2 2 2 2 2 2 3 3 3 2 2 3 3 5
4 4 3 3 3 2 3 3 3 3 3 4 4 3 3 3 3 2 3 2 2 2 2 2 2 2 2 2 2 2 2 2 3 3 3 3 3 3 3 3 3 3 4
3 3 3 3 2 3 3 3 3 3 4 4 4 4 3 3 3 3 3 2 2 2 2 2 2 2 3 2 2 3 3 2 3 3 3 4 4 4 3 3 4 4 4
3 3 3 3 4 4 4 4 4 4 3 3 3 4 3 3 4 4 3 3 2 2 2 2 2 2 3 3 3 3 3 3 3 3 4 4 4 4 4 4 4 4 4
4 3 3 4 4 4 4 4 4 4 3 3 3 4 5 4 4 4 3 3 3 3 2 2 2 3 3 3 3 3 3 3 4 4 4 4 4 5 5 4 4 4 4
4 4 4 4 4 4 4 4 4 4 3 3 4 5 5 4 3 3 3 3 3 3 3 2 3 3 3 3 3 3 3 4 4 4 4 5 6 7 6 5 4 4 4
5 5 4 4 4 5 5 4 4 4 3 4 5 4 4 4 4 4 3 3 3 3 3 3 3 3 3 5 6 5 3 4 4 5 5 5 6 7 9 9 8 6 5
5 5 5 5 5 5 5 5 5 3 3 4 4 4 4 4 4 4 3 4 4 3 3 4 3 4 5 7 8 8 4 4 4 5 5 5 5 6 5 7 9 8 10
5 5 4 4 4 4 4 4 3 3 4 4 4 4 4 4 4 4 4 4 3 3 4 4 4 4 5 8 8 8 4 4 4 4 4 5 5 5 5 5 5 6 6
5 5 5 4 4 4 4 3 3 3 3 4 5 4 4 4 4 5 5 4 3 4 4 3 4 4 5 8 8 7 3 3 4 4 4 5 5 9 10 6 5 6 6
4 4 3 3 3 4 2 2 3 3 5 5 5 4 4 4 5 6 5 4 4 4 4 4 4 4 5 7 8 7 2 3 4 4 4 7 7 9 10 6 5 7 7
4 4 3 3 4 3 2 3 4 5 6 4 4 4 4 4 5 4 4 3 3 3 3 4 4 4 5 7 8 8 3 3 4 4 4 4 9 11 11 9 5 7 8
4 3 3 4 4 3 3 4 6 6 4 3 3 4 4 4 3 4 3 3 3 3 4 3 4 3 4 5 7 9 7 5 4 4 4 5 10 10 10 8 8 10 9
5 4 4 4 4 4 4 5 6 4 3 3 4 4 4 3 3 4 4 3 3 3 3 3 4 4 3 4 8 9 9 8 4 4 7 9 10 9 7 8 9 7 4
5 4 3 4 5 4 4 5 5 3 3 4 4 3 3 3 3 3 3 3 4 4 4 4 4 4 3 3 4 4 4 6 5 4 6 8 8 6 7 7 5 3 3
4 4 4 5 6 5 5 4 4 3 4 4 4 4 3 4 4 4 4 5 5 5 5 5 4 4 5 6 7 4 3 3 4 3 2 2 3 3 3 3 3 3 3
4 4 5 5 6 5 5 4 4 4 4 4 4 3 3 3 3 3 4 7 7 8 9 8 6 5 8 8 8 8 8 8 7 3 3 3 3 4 4 4 4 3 3
Wind_Direction
212 165 144 132 123 124 129 125 89 53 60 39 38 35 360 31 34 21 21 21 21 12 15 6 359 358 360 345 339 333 335 334 334 336 323 313 294 280 291 303 316 330 322
189 167 149 145 146 149 156 148 117 75 63 62 32 154 318 353 357 2 11 14 21 11 12 16 2 351 355 351 343 341 333 332 353 348 322 317 320 315 315 309 304 314 319
186 179 170 172 164 170 178 170 144 124 77 55 57 41 35 13 5 1 355 355 7 9 3 8 6 349 354 341 332 326 324 315 321 332 258 287 284 312 290 287 304 318 318
178 173 171 180 187 194 185 180 160 138 103 81 91 93 87 273 279 290 308 339 1 360 355 2 5 349 348 336 323 330 313 294 299 309 279 257 271 283 299 292 294 307 303
182 178 179 187 189 188 185 186 172 146 146 140 146 150 232 258 282 304 335 342 348 352 350 351 351 343 335 326 321 323 319 302 282 281 285 288 290 266 271 289 296 297 283
191 186 180 170 180 182 185 190 184 188 188 178 176 183 216 236 275 311 323 326 329 333 337 338 339 332 328 328 323 317 314 307 300 295 285 275 274 277 273 280 292 294 291
179 184 189 192 199 202 209 206 200 208 203 191 191 202 215 214 221 250 264 283 303 309 313 323 327 326 318 318 320 320 317 311 301 295 292 288 281 278 275 278 289 293 293
190 200 209 210 208 208 210 211 210 219 211 204 213 211 209 208 226 238 241 252 266 277 288 301 312 316 318 320 320 317 312 312 305 305 300 299 295 292 283 278 286 293 293
216 216 219 217 218 217 215 212 215 222 221 216 211 210 208 208 222 233 234 251 267 286 295 302 308 314 315 310 311 310 306 308 305 303 304 298 295 291 286 283 273 272 286
240 233 228 227 225 223 225 223 221 221 226 223 218 214 213 214 216 213 225 244 261 277 294 300 301 305 309 310 310 307 304 311 307 300 304 304 300 299 289 282 280 267 267
234 235 240 239 232 233 227 228 232 234 235 229 222 218 216 212 211 215 226 233 250 263 271 281 290 294 301 301 304 300 308 312 312 312 309 304 302 298 298 293 282 271 265
237 235 235 242 244 243 242 239 240 239 239 230 218 218 215 209 213 225 229 225 238 252 259 272 285 289 294 295 293 295 305 300 302 303 303 299 299 299 294 291 285 275 267
252 243 235 237 243 246 247 247 246 243 240 224 220 222 221 218 221 226 225 223 229 244 254 260 271 280 286 291 289 286 292 288 285 286 287 289 291 291 293 292 287 280 279
248 241 245 248 249 248 245 246 252 246 235 222 223 228 229 225 224 222 221 224 225 232 242 252 261 269 277 280 280 286 289 288 285 283 282 283 282 282 286 286 285 287 285
249 245 246 248 253 257 257 251 250 246 229 221 230 235 233 224 221 223 224 224 228 235 237 247 261 268 270 270 277 284 285 284 286 287 284 283 284 281 282 286 286 288 288
252 254 255 251 250 250 253 254 251 246 226 222 233 237 231 224 223 223 220 222 231 235 235 242 252 262 271 280 281 285 273 275 278 285 287 287 288 291 294 292 288 284 284
256 256 254 249 248 247 242 243 245 247 234 232 235 233 228 228 228 224 218 224 229 226 234 242 244 254 266 277 281 283 285 272 273 278 284 291 293 297 296 296 297 294 292
253 256 253 253 254 248 245 246 244 239 238 239 240 237 233 234 231 220 224 229 226 227 235 242 243 253 268 279 283 288 285 274 273 277 281 284 291 293 296 296 299 291 289
247 247 244 245 250 253 246 238 242 244 245 248 245 238 229 233 229 228 231 228 223 234 236 241 242 249 267 277 283 288 281 279 282 285 286 287 288 295 301 298 294 299 298
251 248 249 252 255 258 240 228 244 245 249 249 247 240 226 225 231 232 232 225 221 232 239 246 241 242 256 272 280 284 266 273 282 287 285 284 291 297 301 297 294 297 298
257 252 249 252 251 248 228 238 248 250 253 253 249 242 232 229 233 235 231 227 225 230 237 247 251 246 253 269 276 280 268 262 276 282 286 287 296 298 300 299 290 291 302
266 257 251 262 261 237 221 245 254 258 258 248 246 245 241 238 236 231 235 227 217 227 241 248 262 254 254 264 274 278 276 276 268 274 280 285 295 298 301 303 302 306 313
260 256 248 260 264 240 220 241 260 260 250 245 249 252 250 242 232 224 228 227 218 224 240 244 257 266 256 262 269 274 279 280 274 271 284 293 297 300 300 301 307 311 310
258 258 255 259 265 255 238 242 255 246 234 244 253 253 249 252 242 229 221 220 222 227 237 243 253 261 262 254 258 263 269 276 276 276 283 291 296 296 296 302 306 304 296
259 249 247 253 261 260 254 252 246 230 236 246 252 253 248 246 246 238 228 227 226 224 230 233 235 245 256 258 264 271 266 268 270 293 294 290 297 295 296 299 298 299 303
258 258 256 256 261 259 259 257 240 223 230 249 250 245 245 246 243 246 261 251 247 253 249 250 249 251 259 277 273 269 269 271 272 276 275 274 276 282 291 296 298 294 295